Location: Poughquag
(41.6090°N, 73.6820°W)
Time: 03:20:35
(UTC-04:00)

Vanguard 1 Rocket - Pass Details

Date: 31 May 2020
Orbit: 653 x 4224 km, 34.3° (Epoch: 06 July)

Event Time Altitude Azimuth Distance (km) Brightness Sun altitude
Rises 23:09:15 0° 217° (SW) 8,455 12.1 -21.9°
Reaches altitude 10° 23:16:05 10° 211° (SSW) 7,304 11.6 -22.5°
Maximum altitude 23:36:31 38° 153° (SSE) 4,192 10.2 -23.9°
Drops below altitude 10° 23:49:20 10° 92° (E) 4,715 10.8 -24.6°
Sets 23:52:33 0° 84° (E) 5,312 11.2 -24.8°
